DW6220 Weather Reports


time (UTC)temp
F
wind
direction
speed
knots
gust
knots
rain 1hr
in
rain 24hr
in
rain mn
in
humidity
%
barometer
mb
20260503054503 58 355 0.0 0.0 0.00 0.00 0.00 55 1010.7
20260503053002 59 355 0.0 0.0 0.00 0.00 0.00 53 1010.7
20260503050002 61 355 0.0 0.0 0.00 0.00 0.00 51 1010.7
20260503044502 62 355 0.0 0.0 0.00 0.00 0.00 46 1010.7
20260503043007 63 355 0.0 0.0 0.00 0.00 0.00 45 1010.6
20260503041503 64 355 0.0 0.0 0.00 0.00 0.00 43 1010.4
20260503040002 65 355 0.0 1.7 0.00 0.00 0.00 42 1010.3
20260503034505 66 355 0.0 3.5 0.00 0.00 0.00 41 1010.2
20260503033002 67 355 0.0 2.6 0.00 0.00 0.00 39 1010.0
20260503031502 68 355 1.7 7.0 0.00 0.00 0.00 39 1009.9
20260503030002 69 355 0.0 2.6 0.00 0.00 0.00 38 1009.8
20260503024501 70 355 0.0 1.7 0.00 0.00 0.00 37 1009.8
20260503023004 71 355 0.0 0.0 0.00 0.00 0.00 35 1009.7
20260503021503 71 355 0.0 3.5 0.00 0.00 0.00 34 1009.6
20260503020003 72 355 1.7 4.3 0.00 0.00 0.00 33 1009.6
20260503014502 72 355 1.7 5.2 0.00 0.00 0.00 32 1009.7
20260503013004 73 355 2.6 7.0 0.00 0.00 0.00 32 1009.7
20260503011504 74 355 3.5 9.6 0.00 0.00 0.00 31 1009.6
20260503010003 75 5 5.2 13.0 0.00 0.00 0.00 28 1009.7
20260503004503 76 17 4.3 11.3 0.00 0.00 0.00 28 1009.8
20260503003001 76 355 5.2 13.0 0.00 0.00 0.00 26 1009.8
20260503001601 77 331 3.5 11.3 0.00 0.00 0.00 27 1009.8
20260503000058 78 360 7.0 14.8 0.00 0.00 0.00 26 1009.8
20260502234557 78 9 3.5 9.6 0.00 0.00 0.00 23 1010.0
20260502233102 78 84 0.0 5.2 0.00 0.00 0.00 25 1010.2
20260502231605 77 329 5.2 13.0 0.00 0.00 0.00 23 1010.4
20260502230055 78 341 4.3 9.6 0.00 0.00 0.00 25 1010.5
20260502224552 78 239 2.6 13.9 0.00 0.00 0.00 24 1010.6
20260502223050 77 275 4.3 9.6 0.00 0.00 0.00 25 1010.8
20260502221548 77 355 0.0 13.9 0.00 0.00 0.00 25 1011.0
20260502220150 77 19 0.9 9.6 0.00 0.00 0.00 27 1011.1
20260502214548 77 9 4.3 18.2 0.00 0.00 0.00 27 1011.2
20260502213046 77 332 2.6 12.2 0.00 0.00 0.00 26 1011.4
20260502211548 78 342 4.3 8.7 0.00 0.00 0.00 25 1011.5
20260502210057 77 5 3.5 16.5 0.00 0.00 0.00 25 1011.6
20260502204545 76 78 4.3 13.0 0.00 0.00 0.00 25 1011.7
20260502203046 77 40 4.3 11.3 0.00 0.00 0.00 24 1011.9
20260502201545 77 5 1.7 11.3 0.00 0.00 0.00 26 1011.9
20260502200044 77 94 4.3 10.4 0.00 0.00 0.00 23 1011.9
20260502194541 76 53 1.7 11.3 0.00 0.00 0.00 26 1012.0
20260502193038 75 134 9.6 17.4 0.00 0.00 0.00 27 1012.1
20260502191536 74 85 7.0 15.6 0.00 0.00 0.00 26 1012.3
20260502190037 74 109 9.6 13.9 0.00 0.00 0.00 30 1012.4
20260502184545 74 82 7.0 16.5 0.00 0.00 0.00 30 1012.5
20260502183034 74 117 3.5 14.8 0.00 0.00 0.00 29 1012.6
20260502181529 72 77 7.8 18.2 0.00 0.00 0.00 33 1012.7
20260502163019 65 69 6.1 16.5 0.00 0.00 0.00 44 1013.0
20260502161515 65 96 7.8 14.8 0.00 0.00 0.00 44 1012.9
20260502151508 61 104 7.8 21.7 0.00 0.00 0.00 47 1012.9
20260502123045 51 86 7.0 9.6 0.00 0.00 0.00 61 1012.6
20260502121550 52 100 2.6 7.8 0.00 0.00 0.00 62 1012.7
20260502114543 52 108 5.2 9.6 0.00 0.00 0.00 61 1012.7
20260502113040 52 107 2.6 6.1 0.00 0.00 0.00 61 1012.7
20260502111541 53 111 4.3 7.8 0.00 0.00 0.00 60 1012.5
20260502110042 53 112 5.2 9.6 0.00 0.00 0.00 60 1012.5
20260502104542 52 110 3.5 7.8 0.00 0.00 0.00 62 1012.5
20260502103048 52 106 4.3 7.8 0.00 0.00 0.00 63 1012.6
20260502101543 51 90 5.2 7.8 0.00 0.00 0.00 65 1012.6
20260502091533 51 53 0.0 2.6 0.00 0.00 0.00 69 1012.6
20260502071518 52 50 0.0 0.0 0.00 0.00 0.00 68 1013.1